Wind_Speed
11 10 10 10 10 10 11 11 11 11 12 12 13 13 13 13 14 14 14 14 15 15 15 17 17 17 18 18 18 17 16 16 16 16 16 16 16 15 13 13 13 12 12 11
12 11 11 11 11 12 12 12 12 12 13 14 14 14 13 13 14 14 14 14 15 15 15 16 16 17 17 18 18 17 16 16 16 16 16 16 16 15 15 15 14 13 13 13
12 13 12 12 12 12 12 12 12 12 12 14 13 13 14 14 15 15 14 14 15 16 16 16 16 17 17 18 18 17 17 16 17 17 16 16 16 16 16 15 15 15 15 15
14 13 13 12 12 12 12 12 12 13 13 14 14 14 14 15 15 15 15 14 14 16 17 16 17 18 18 18 18 18 18 18 17 17 17 17 17 17 16 16 16 16 15 16
14 14 14 13 12 12 12 12 13 13 14 14 14 14 15 15 15 15 15 15 15 15 16 16 16 17 18 18 18 18 18 17 18 17 17 18 18 18 18 18 17 17 17 17
16 15 14 14 13 13 13 12 13 14 14 14 14 14 14 15 15 16 16 16 16 16 17 17 17 17 17 17 18 18 18 17 18 18 18 18 19 19 19 18 18 18 18 19
17 17 15 15 14 13 14 13 14 14 14 14 14 15 15 15 15 16 16 17 17 17 17 17 18 17 17 17 17 17 18 18 18 18 19 19 19 19 19 19 19 19 19 20
18 17 16 15 15 15 15 15 14 14 15 15 15 15 15 14 15 16 16 17 16 17 17 18 18 18 17 17 17 18 18 19 19 18 18 18 18 18 19 20 20 21 21 21
18 17 17 16 15 15 16 15 15 15 15 15 15 15 15 15 15 15 16 17 16 17 17 18 18 18 18 18 17 18 18 18 19 19 19 19 19 20 20 21 22 22 22 22
19 18 17 17 16 16 16 16 15 15 15 15 15 15 16 15 15 15 15 17 17 17 17 17 18 18 18 18 18 18 19 19 20 21 21 21 21 22 22 22 22 23 23 24
20 19 19 18 17 17 17 16 16 16 15 16 16 16 16 15 15 15 16 16 17 18 18 18 19 19 19 19 19 19 20 20 21 22 23 23 23 23 24 24 25 24 25 25
21 20 20 19 19 18 18 18 17 16 16 16 17 16 16 16 15 16 16 17 18 19 18 19 19 20 20 21 20 21 21 22 23 23 24 25 25 26 26 26 26 26 26 26
22 21 21 20 20 20 19 19 18 17 17 17 17 17 17 17 17 17 17 18 19 19 20 20 20 21 22 22 23 23 23 23 24 24 25 26 26 26 27 27 27 27 27 27
23 22 22 21 21 21 20 20 20 19 19 18 18 18 18 18 18 18 18 18 19 19 20 20 21 22 22 23 24 24 24 24 25 25 26 26 26 26 26 27 27 27 27 28
24 24 23 23 23 22 22 22 22 21 21 20 19 19 19 19 19 19 19 19 20 20 20 21 21 22 23 23 23 23 23 24 24 25 25 26 27 27 27 27 28 28 29 30
25 25 24 24 24 24 23 23 23 22 22 22 22 21 20 20 20 20 20 20 21 21 21 22 22 22 23 23 23 23 23 24 24 24 24 25 26 27 27 28 28 29 30 30
25 25 25 25 25 25 25 25 25 25 24 24 23 22 22 22 22 22 22 22 22 22 22 22 22 22 23 23 23 23 23 24 24 25 25 26 27 28 28 29 30 30 31 32
26 26 25 25 25 24 25 25 25 24 24 24 24 24 24 23 23 23 24 24 23 23 24 24 24 24 23 24 24 24 25 25 25 26 27 27 28 28 29 30 31 31 32 34
27 26 26 26 25 25 25 25 24 24 24 24 25 25 25 25 25 25 25 25 25 24 24 24 24 25 24 24 24 25 25 26 26 27 28 28 28 29 30 31 31 33 34 35
26 26 26 26 25 25 25 25 25 25 25 25 25 26 26 26 26 26 26 26 26 25 25 24 24 24 25 25 25 26 27 28 28 29 30 30 31 31 31 32 33 33 34 35
26 26 26 26 25 25 25 25 26 26 26 25 26 26 26 27 27 27 27 27 26 26 25 25 26 26 26 27 27 28 29 30 30 31 31 31 32 33 33 34 34 36 37 37
26 26 26 26 25 26 26 26 27 27 26 26 26 26 26 26 27 27 27 27 27 27 27 27 27 28 28 29 29 30 31 31 32 32 33 33 33 34 34 35 36 37 38 39
27 26 26 26 26 25 26 26 27 28 28 28 27 27 27 27 27 27 27 27 28 28 28 29 29 30 30 31 31 31 32 32 32 33 34 34 34 35 36 37 38 38 39 40
27 26 26 25 25 26 26 27 27 28 28 28 28 28 28 28 28 28 28 28 29 30 30 31 31 32 32 32 32 32 33 33 34 35 35 36 36 37 38 38 39 39 39 40
27 27 26 26 26 26 27 27 27 28 28 29 29 29 28 28 29 29 30 30 31 32 32 32 33 33 33 34 34 34 34 35 36 36 37 37 38 38 38 39 39 39 39 39
27 27 27 27 27 27 27 27 27 28 28 28 28 28 28 29 29 30 31 31 32 32 32 32 33 33 34 35 35 36 36 36 36 37 37 37 38 38 38 38 38 38 38 39
28 28 28 28 28 28 27 27 27 27 27 27 28 28 29 29 30 30 31 31 32 32 32 32 33 34 35 35 36 37 37 37 37 37 37 37 38 38 38 38 39 39 39 39
Wind_Direction
229 234 235 234 235 233 233 233 233 232 236 239 239 238 235 234 234 235 235 234 234 235 236 231 228 229 230 230 231 232 235 238 238 237 237 239 243 242 244 247 251 256 255 257
234 234 234 237 237 238 239 238 237 238 237 240 239 237 234 234 235 236 236 234 234 234 233 229 229 229 229 229 231 233 236 239 239 240 239 239 242 241 245 248 251 255 256 260
236 237 237 238 239 240 243 241 238 237 237 238 240 237 235 236 236 237 235 233 233 233 231 231 229 229 228 228 231 233 237 239 239 240 242 241 243 245 248 251 255 257 259 262
236 236 237 241 242 243 241 238 239 239 239 242 242 241 239 238 238 238 238 238 238 234 232 233 233 230 229 230 232 237 240 241 242 242 243 243 243 246 251 255 259 259 264 266
236 237 241 244 244 243 243 241 242 241 244 247 246 243 240 240 242 241 241 240 239 236 234 234 235 234 232 231 234 237 239 240 242 244 246 247 246 249 253 258 259 262 266 269
237 240 242 245 245 246 245 243 243 244 245 246 247 246 244 245 245 240 239 239 240 239 235 234 235 236 235 234 235 237 239 241 243 246 248 250 251 251 255 258 261 265 268 271
238 241 244 245 246 246 243 244 245 246 247 247 247 245 244 244 243 241 239 239 239 238 234 233 234 235 236 237 236 238 241 242 246 250 251 252 254 254 256 260 262 265 269 272
239 242 244 247 246 246 244 244 246 247 249 250 247 246 247 245 244 242 240 238 238 237 233 232 233 235 235 236 237 239 242 244 249 253 254 256 257 258 260 263 265 268 272 274
241 244 246 247 248 246 245 245 247 249 250 250 250 248 248 247 246 243 241 239 240 237 233 235 237 238 236 238 240 243 246 250 251 253 255 258 260 263 265 266 267 269 272 273
239 242 245 246 246 246 246 246 249 251 251 250 249 248 247 248 246 244 242 240 240 236 234 236 238 238 239 242 245 248 250 251 252 255 258 261 263 267 268 268 270 271 272 273
238 240 244 245 244 244 245 246 247 250 250 250 248 248 248 248 248 246 243 241 238 235 238 237 237 241 243 246 249 252 253 254 256 257 260 263 265 267 269 268 270 272 273 273
238 240 242 242 244 246 247 245 246 247 248 251 251 248 249 250 248 248 247 242 239 239 239 240 241 243 246 249 252 256 258 259 260 261 262 265 267 268 268 269 269 270 271 272
239 240 241 241 243 246 248 247 246 249 251 251 250 249 250 252 251 250 249 246 242 241 241 243 245 246 249 251 254 257 260 261 262 263 264 264 266 268 269 269 269 271 273 274
239 239 239 240 243 246 248 248 248 251 252 252 252 248 249 251 252 251 250 247 244 244 246 247 249 251 252 255 257 258 260 262 264 264 263 264 267 268 270 270 270 272 274 275
239 238 239 241 244 246 248 248 248 249 251 252 252 250 249 250 252 252 249 249 250 250 251 251 252 254 256 258 258 260 262 264 266 267 266 266 268 270 271 271 272 274 276 277
239 239 240 242 244 246 247 248 248 249 251 252 251 251 251 251 252 252 252 254 254 254 253 253 254 255 257 259 260 262 263 264 265 268 269 269 270 272 272 273 274 275 277 279
239 241 242 243 244 244 245 246 247 248 249 250 249 250 251 253 253 253 255 256 257 256 256 256 255 257 258 259 261 263 264 266 267 269 270 273 274 273 274 274 275 277 278 280
238 240 242 243 243 244 245 245 247 248 248 249 249 250 251 253 254 255 256 259 260 260 259 259 258 259 260 262 263 264 266 268 270 271 273 275 277 276 276 276 277 278 280 281
238 241 242 242 244 244 244 244 246 248 248 249 250 251 252 254 255 257 258 259 261 262 263 263 263 263 263 263 264 266 268 270 272 274 275 276 277 278 279 278 279 280 281 282
240 242 243 243 244 245 244 244 246 248 249 251 252 252 254 256 256 258 260 261 261 263 264 264 265 266 266 267 267 268 271 272 274 276 277 278 278 279 279 279 280 282 283 285
239 241 242 243 244 245 244 245 248 250 251 252 254 254 255 256 257 259 260 260 261 263 264 265 266 267 267 269 271 272 274 275 276 277 278 279 279 279 280 282 282 283 284 286
239 240 241 242 244 245 246 247 248 250 251 253 255 256 258 258 257 258 257 258 260 263 265 266 267 268 269 270 272 274 276 276 276 277 278 279 280 281 282 283 284 285 286 286
240 240 242 243 244 245 247 248 249 250 253 255 257 258 258 258 259 259 259 259 261 264 265 266 268 269 271 272 274 275 276 277 277 278 279 281 282 283 284 284 285 286 287 287
240 240 241 242 244 245 247 248 250 252 253 255 257 258 259 259 260 262 263 263 265 266 266 267 269 270 271 272 274 275 276 276 277 279 281 282 282 284 285 286 286 287 287 287
238 239 240 242 244 246 248 250 252 254 255 256 258 259 259 261 262 263 265 266 267 268 268 268 269 270 271 272 274 275 276 276 277 279 281 283 283 284 286 286 286 287 287 287
238 240 241 244 246 249 250 252 253 254 256 257 258 259 261 263 265 265 266 267 269 269 270 270 270 271 273 273 275 276 276 277 278 279 280 282 284 285 285 285 286 286 287 287
240 242 244 246 248 250 252 253 255 256 257 258 260 262 264 265 266 267 268 269 270 271 271 271 272 273 274 275 276 277 276 277 278 279 280 281 282 284 285 285 285 286 286 286
Height
5808 5809 5810 5811 5812 5813 5814 5816 5818 5819 5820 5821 5821 5822 5823 5825 5826 5828 5830 5831 5833 5835 5837 5838 5841 5843 5846 5848 5850 5852 5854 5856 5857 5858 5860 5861 5862 5862 5863 5864 5864 5865 5865 5865
5805 5806 5807 5808 5809 5810 5811 5812 5814 5815 5817 5817 5817 5819 5820 5821 5823 5825 5826 5828 5829 5831 5833 5835 5837 5840 5842 5845 5847 5849 5850 5852 5853 5855 5856 5857 5858 5859 5860 5861 5861 5862 5862 5862
5802 5803 5804 5806 5807 5807 5808 5809 5810 5812 5813 5813 5814 5815 5817 5818 5819 5821 5822 5824 5825 5827 5829 5831 5834 5836 5839 5841 5843 5845 5847 5848 5850 5851 5852 5853 5854 5856 5856 5857 5857 5858 5858 5858
5799 5801 5801 5805 5803 5804 5805 5806 5807 5808 5809 5810 5811 5812 5813 5814 5816 5817 5818 5820 5822 5823 5826 5828 5830 5833 5835 5837 5839 5841 5843 5844 5846 5847 5848 5849 5850 5851 5852 5853 5853 5854 5854 5854
5795 5796 5798 5800 5800 5800 5801 5802 5803 5804 5805 5806 5807 5808 5809 5810 5812 5813 5815 5816 5818 5819 5822 5824 5827 5829 5831 5833 5835 5837 5839 5840 5842 5843 5844 5845 5846 5847 5848 5849 5849 5849 5850 5850
5791 5793 5794 5797 5796 5797 5799 5799 5800 5800 5801 5802 5803 5805 5806 5807 5807 5809 5810 5812 5814 5816 5818 5820 5823 5825 5827 5829 5831 5833 5835 5836 5837 5839 5840 5841 5841 5842 5844 5844 5844 5845 5845 5845
5787 5788 5790 5792 5792 5794 5796 5797 5796 5797 5798 5799 5799 5801 5802 5802 5803 5805 5806 5808 5810 5811 5814 5816 5819 5821 5823 5825 5827 5829 5830 5832 5833 5834 5835 5836 5837 5838 5839 5839 5839 5840 5839 5839
5782 5784 5788 5787 5788 5790 5791 5791 5792 5793 5794 5795 5795 5796 5797 5798 5799 5800 5802 5804 5805 5807 5809 5812 5814 5817 5819 5821 5823 5824 5826 5827 5828 5829 5830 5831 5832 5833 5833 5834 5834 5834 5834 5833
5778 5781 5782 5783 5784 5785 5786 5787 5788 5789 5790 5791 5792 5792 5793 5794 5795 5796 5798 5799 5801 5803 5805 5808 5810 5812 5815 5816 5818 5820 5821 5822 5823 5824 5825 5826 5827 5827 5828 5828 5828 5828 5828 5827
5772 5774 5776 5778 5779 5781 5782 5783 5784 5785 5786 5787 5788 5788 5789 5790 5791 5792 5793 5795 5796 5799 5801 5803 5805 5808 5810 5812 5813 5815 5816 5817 5818 5819 5820 5820 5821 5821 5821 5822 5821 5821 5821 5820
5767 5769 5771 5773 5775 5776 5777 5778 5779 5780 5781 5782 5784 5784 5785 5786 5787 5788 5789 5790 5792 5794 5796 5799 5801 5803 5805 5807 5808 5809 5811 5811 5812 5813 5814 5814 5815 5815 5815 5815 5815 5815 5814 5813
5762 5764 5766 5768 5769 5771 5772 5773 5775 5776 5777 5778 5779 5780 5781 5782 5783 5784 5785 5786 5788 5790 5792 5794 5796 5798 5800 5801 5802 5804 5805 5805 5806 5807 5807 5807 5807 5807 5807 5807 5807 5807 5806 5806
5755 5758 5760 5762 5763 5765 5766 5768 5769 5771 5772 5773 5774 5775 5777 5778 5779 5780 5781 5782 5783 5785 5787 5789 5791 5793 5794 5796 5797 5798 5799 5799 5799 5800 5800 5800 5800 5800 5800 5799 5799 5799 5798 5797
5749 5751 5754 5756 5758 5759 5761 5762 5764 5765 5766 5768 5769 5770 5772 5773 5774 5775 5776 5777 5779 5780 5782 5784 5785 5787 5788 5789 5790 5791 5791 5792 5792 5792 5792 5792 5792 5792 5792 5791 5791 5790 5790 5789
5742 5745 5747 5750 5751 5753 5755 5756 5758 5759 5761 5762 5763 5765 5766 5768 5769 5770 5771 5772 5774 5775 5776 5778 5779 5780 5781 5782 5783 5784 5784 5785 5785 5785 5784 5784 5784 5784 5783 5783 5783 5782 5781 5780
5735 5738 5740 5743 5745 5747 5748 5750 5752 5753 5755 5756 5758 5759 5761 5762 5763 5764 5766 5767 5768 5769 5770 5771 5772 5773 5774 5775 5776 5776 5777 5777 5777 5777 5777 5777 5776 5776 5775 5775 5774 5774 5773 5772
5728 5731 5733 5736 5738 5740 5742 5743 5745 5747 5748 5750 5752 5753 5755 5756 5757 5759 5760 5761 5762 5763 5764 5765 5766 5766 5767 5767 5768 5768 5769 5769 5769 5769 5769 5769 5768 5767 5767 5766 5765 5764 5763 5762
5721 5723 5726 5728 5730 5732 5734 5736 5738 5739 5741 5743 5745 5746 5748 5750 5751 5752 5753 5754 5755 5756 5757 5757 5758 5759 5759 5760 5760 5761 5761 5761 5761 5761 5760 5760 5759 5758 5757 5756 5756 5754 5753 5752
5713 5716 5718 5721 5723 5725 5727 5729 5730 5732 5734 5736 5738 5739 5741 5742 5744 5745 5746 5747 5748 5749 5749 5750 5750 5751 5751 5752 5752 5753 5753 5753 5753 5752 5752 5751 5750 5749 5748 5747 5746 5744 5743 5741
5706 5708 5710 5713 5715 5718 5720 5721 5723 5725 5727 5729 5731 5732 5733 5735 5736 5737 5738 5739 5740 5741 5741 5742 5743 5743 5743 5744 5744 5744 5744 5744 5744 5743 5742 5741 5740 5739 5738 5737 5735 5734 5732 5730
5698 5701 5703 5705 5708 5710 5712 5714 5716 5718 5720 5721 5723 5724 5726 5727 5728 5729 5730 5731 5732 5732 5733 5734 5734 5735 5735 5735 5735 5735 5735 5734 5734 5733 5732 5731 5730 5729 5728 5726 5725 5723 5721 5718
5690 5693 5695 5698 5700 5702 5704 5706 5708 5710 5712 5713 5715 5716 5717 5718 5719 5720 5721 5722 5723 5724 5724 5725 5725 5726 5726 5726 5726 5726 5725 5724 5724 5723 5722 5721 5720 5718 5717 5715 5713 5711 5709 5706
5682 5685 5687 5690 5692 5694 5696 5698 5700 5702 5703 5705 5706 5708 5709 5710 5711 5711 5712 5713 5714 5714 5715 5716 5716 5716 5716 5716 5716 5715 5715 5714 5713 5712 5711 5710 5709 5707 5705 5703 5701 5699 5696 5693
5674 5677 5679 5682 5684 5686 5688 5690 5692 5693 5695 5696 5698 5699 5700 5701 5702 5702 5703 5704 5704 5705 5705 5706 5706 5706 5706 5705 5705 5704 5704 5703 5702 5701 5700 5698 5697 5695 5693 5691 5689 5686 5684 5681
5666 5668 5671 5673 5676 5678 5680 5682 5683 5685 5686 5687 5688 5689 5690 5691 5692 5693 5693 5694 5694 5695 5695 5695 5695 5695 5695 5694 5694 5693 5692 5691 5691 5689 5688 5686 5684 5683 5681 5678 5676 5674 5671 5669
5658 5660 5663 5665 5667 5669 5671 5673 5674 5676 5677 5678 5679 5680 5681 5682 5682 5683 5683 5684 5684 5684 5684 5684 5684 5683 5683 5682 5682 5681 5680 5679 5678 5677 5676 5674 5672 5670 5668 5666 5664 5661 5659 5656
5649 5652 5654 5656 5658 5660 5662 5664 5665 5667 5668 5669 5670 5671 5671 5672 5672 5673 5673 5673 5673 5673 5673 5673 5673 5672 5671 5671 5670 5668 5667 5667 5666 5664 5663 5661 5660 5658 5655 5653 5651 5649 5646 5644